EW4964 Weather Reports


Display with metric or nautical units.
time (UTC)temp
F
wind
direction
speed
MPH
gust
MPH
rain 1hr
in
rain 24hr
in
rain mn
in
humidity
%
barometer
mb
20260901070005 58 307 5.0 10.0 0.00 0.00 0.00 44 1018.0
20260901063005 56 246 4.0 8.0 0.00 0.00 0.00 48 1017.9
20260901061505 56 82 4.0 10.0 0.00 0.00 0.00 51 1018.0
20260901060005 55 1 5.0 11.0 0.00 0.00 0.00 51 1017.9
20260901054505 54 289 4.0 10.0 0.00 0.00 0.00 52 1017.8
20260901053005 54 309 4.0 9.0 0.00 0.00 0.00 52 1017.6
20260901050005 54 326 3.0 6.0 0.00 0.00 0.00 53 1017.6
20260901044506 53 279 4.0 8.0 0.00 0.00 0.00 53 1017.7
20260901043005 53 298 3.0 7.0 0.00 0.00 0.00 53 1017.5
20260901041505 53 267 4.0 8.0 0.00 0.00 0.00 52 1017.2
20260901040005 53 257 4.0 10.0 0.00 0.00 0.00 52 1017.0
20260901031504 53 247 5.0 13.0 0.00 0.00 0.00 51 1017.0
20260901021505 55 260 3.0 7.0 0.00 0.00 0.00 46 1016.6
20260901020005 55 276 3.0 7.0 0.00 0.00 0.00 45 1016.7
20260901014505 55 254 4.0 8.0 0.00 0.00 0.00 44 1016.6
20260901013005 56 185 3.0 8.0 0.00 0.00 0.00 43 1016.5
20260901010004 56 225 4.0 10.0 0.00 0.00 0.00 42 1016.6
20260901004504 57 296 3.0 6.0 0.00 0.00 0.00 41 1016.7
20260901003005 57 282 4.0 10.0 0.00 0.00 0.00 41 1016.5
20260901000008 58 271 5.0 9.0 0.00 0.00 0.00 39 1016.5
20260831234508 58 295 4.0 9.0 0.00 0.00 0.00 38 1016.9
20260831233008 58 314 2.0 6.0 0.00 0.00 0.00 37 1016.8
20260831231508 58 252 2.0 4.0 0.00 0.00 0.00 38 1017.0
20260831230008 58 234 2.0 4.0 0.00 0.00 0.00 37 1017.1
20260831224508 59 244 2.0 4.0 0.00 0.00 0.00 36 1017.0
20260831223008 59 262 3.0 4.0 0.00 0.00 0.00 36 1017.0
20260831221508 60 230 4.0 6.0 0.00 0.00 0.00 35 1017.2
20260831220011 60 234 4.0 8.0 0.00 0.00 0.00 35 1017.1
20260831214508 60 322 2.0 6.0 0.00 0.00 0.00 35 1016.8
20260831213008 60 1 1.0 3.0 0.00 0.00 0.00 35 1016.9
20260831211507 60 1 2.0 4.0 0.00 0.00 0.00 35 1016.7
20260831210007 60 1 2.0 4.0 0.00 0.00 0.00 34 1016.5
20260831204508 61 337 2.0 4.0 0.00 0.00 0.00 34 1016.4
20260831203008 61 312 2.0 4.0 0.00 0.00 0.00 34 1016.1
20260831201508 61 266 2.0 4.0 0.00 0.00 0.00 34 1016.2
20260831200007 61 263 2.0 4.0 0.00 0.00 0.00 35 1016.0
20260831194507 60 310 1.0 3.0 0.00 0.00 0.00 35 1015.5
20260831193007 61 271 2.0 4.0 0.00 0.00 0.00 35 1015.6
20260831191508 61 283 1.0 4.0 0.00 0.00 0.00 35 1015.4
20260831190008 61 314 1.0 3.0 0.00 0.00 0.00 34 1015.4
20260831184507 61 314 1.0 2.0 0.00 0.00 0.00 34 1015.8
20260831183007 61 315 1.0 2.0 0.00 0.00 0.00 34 1015.3
20260831181507 62 314 1.0 2.0 0.00 0.00 0.00 31 1015.5
20260831180008 63 315 0.0 2.0 0.00 0.00 0.00 31 1015.4
20260831174507 64 315 0.0 2.0 0.00 0.00 0.00 31 1015.0
20260831173007 64 327 1.0 4.0 0.00 0.00 0.00 29 1015.1
20260831171507 65 342 1.0 4.0 0.00 0.00 0.00 28 1015.1
20260831170007 66 264 3.0 10.0 0.00 0.00 0.00 28 1015.1
20260831163007 68 262 3.0 8.0 0.00 0.00 0.00 27 1015.2
20260831160007 70 308 3.0 9.0 0.00 0.00 0.00 25 1015.3
20260831154507 69 319 4.0 9.0 0.00 0.00 0.00 27 1015.2
20260831153006 68 301 5.0 11.0 0.00 0.00 0.00 26 1015.2
20260831151507 69 263 5.0 14.0 0.00 0.00 0.00 27 1015.3
20260831150007 69 308 5.0 15.0 0.00 0.00 0.00 29 1015.5
20260831143006 72 324 6.0 14.0 0.00 0.00 0.00 24 1015.3
20260831140006 70 311 5.0 11.0 0.00 0.00 0.00 31 1015.2
20260831134506 71 275 4.0 8.0 0.00 0.00 0.00 26 1015.1
20260831133007 70 277 5.0 11.0 0.00 0.00 0.00 31 1015.1
20260831131506 69 331 5.0 15.0 0.00 0.00 0.00 32 1015.1
20260831130007 70 281 6.0 15.0 0.00 0.00 0.00 32 1014.9
20260831124507 72 284 5.0 10.0 0.00 0.00 0.00 27 1015.1
20260831121506 70 322 4.0 11.0 0.00 0.00 0.00 32 1015.2
20260831120006 70 255 7.0 13.0 0.00 0.00 0.00 33 1015.2
20260831114507 68 296 6.0 15.0 0.00 0.00 0.00 34 1015.3
20260831113006 67 253 7.0 14.0 0.00 0.00 0.00 33 1015.5
20260831111507 70 220 5.0 13.0 0.00 0.00 0.00 33 1015.1
20260831110006 68 133 4.0 10.0 0.00 0.00 0.00 33 1015.3
20260831104506 68 236 7.0 16.0 0.00 0.00 0.00 33 1015.2
20260831103006 67 265 6.0 13.0 0.00 0.00 0.00 33 1015.2
20260831100006 67 254 5.0 13.0 0.00 0.00 0.00 33 1015.2
20260831094506 66 309 5.0 10.0 0.00 0.00 0.00 35 1015.4
20260831093006 67 288 5.0 11.0 0.00 0.00 0.00 36 1015.5
20260831091506 67 310 6.0 11.0 0.00 0.00 0.00 36 1015.3
20260831090006 66 240 6.0 12.0 0.00 0.00 0.00 35 1014.8
20260831083006 65 251 6.0 12.0 0.00 0.00 0.00 35 1014.4
20260831081506 65 296 5.0 9.0 0.00 0.00 0.00 36 1014.6
20260831080005 65 239 2.0 5.0 0.00 0.00 0.00 36 1014.3
20260831074506 64 294 3.0 8.0 0.00 0.00 0.00 38 1014.5